Location: Ammerl�gen
(47.2167°N, 9.6000°E)
Time: 09:55:11
(UTC+00:00)

ISS - Pass Details

Date: 02 October 2021
Orbit: 418 x 423 km, 51.6° (Epoch: 19 October)

Event Time Altitude Azimuth Distance (km) Brightness Sun altitude
Rises 17:28:26 0° 294° (WNW) 2,366 1.5 -5.8°
Reaches altitude 10° 17:30:34 10° 298° (WNW) 1,501 0.2 -6.2°
Maximum altitude 17:33:54 61° 19° (NNE) 482 -3.5 -6.8°
Drops below altitude 10° 17:37:14 10° 101° (E) 1,499 -1.6 -7.3°
Enters shadow 17:37:20 - 101° (E) 1,538 -1.6 -7.3°
